Tracking 29892 objects as of 21-Nov-2024
HD Live streaming from Space Station
objects crossing your sky now

NOAA 16 DEB

Track NOAA 16 DEB now!
10-day predictions


NORAD ID: 41248
Int'l Code: 2000-055EY
Perigee: 813.1 km
Apogee: 923.5 km
Inclination: 98.9 °
Period: 102.2 minutes
Semi major axis: 7239 km
RCS: Unknown
Launch date: September 21, 2000
Source: United States (US)
Launch site: AIR FORCE WESTERN TEST RANGE (AFWTR)

Note: This is SATELLITE DEBRIS
Your satellite tracking list
Your tracking list is empty




NASA's NSSDC Master Catalog

Two Line Element Set (TLE):
1 41248U 00055EY  24325.84904030  .00010298  00000-0  57546-2 0  9992
2 41248  98.8676 330.5505 0076280 261.8278  97.4235 14.09482512452538
Source of the keplerian elements: AFSPC